LNI260 WARR-WALL

Flight info

Callsign LNI260
Flight time 1h 17m
Altitude 33000
Route RAMPY T13 IKAPI T11 KAYAN
Aircraft B738/M-SDE2E3FGHIRWXY/LB1

Departure

Time 2026-04-28 11:19
Airport Juanda International Airport (WARR)

Arrival

Time 2026-04-28 12:36
Airport Sultan Aji Muhammad Sulaiman Sepinggan International Airport (WALL)
Time Latitude Longitude Altitude Speed Heading
2026-04-28 11:06 -7.37580 112.79411 8 ft 0 kts
2026-04-28 11:07 -7.37586 112.79410 8 ft 2 kts
2026-04-28 11:07 -7.37601 112.79408 8 ft 2 kts
2026-04-28 11:07 -7.37616 112.79404 8 ft 2 kts
2026-04-28 11:08 -7.37631 112.79402 8 ft 2 kts
2026-04-28 11:08 -7.37646 112.79398 8 ft 2 kts 30°
2026-04-28 11:08 -7.37657 112.79389 8 ft 2 kts 50°
2026-04-28 11:08 -7.37665 112.79376 8 ft 2 kts 72°
2026-04-28 11:09 -7.37668 112.79362 8 ft 2 kts 92°
2026-04-28 11:09 -7.37667 112.79355 8 ft 1 kts 102°
2026-04-28 11:09 -7.37666 112.79351 8 ft 0 kts 99°
2026-04-28 11:11 -7.37667 112.79353 8 ft 0 kts 98°
2026-04-28 11:11 -7.37668 112.79361 8 ft 1 kts 97°
2026-04-28 11:12 -7.37670 112.79378 8 ft 4 kts 97°
2026-04-28 11:12 -7.37678 112.79421 8 ft 7 kts 113°
2026-04-28 11:12 -7.37740 112.79443 8 ft 12 kts 187°
2026-04-28 11:12 -7.37843 112.79428 8 ft 17 kts 188°
2026-04-28 11:13 -7.37915 112.79349 8 ft 16 kts 274°
2026-04-28 11:13 -7.37895 112.79231 8 ft 17 kts 278°
2026-04-28 11:13 -7.37875 112.79103 8 ft 19 kts 279°
2026-04-28 11:13 -7.37853 112.78964 8 ft 20 kts 279°
2026-04-28 11:14 -7.37827 112.78825 11 ft 20 kts 278°
2026-04-28 11:14 -7.37806 112.78680 11 ft 21 kts 279°
2026-04-28 11:14 -7.37781 112.78526 11 ft 23 kts 278°
2026-04-28 11:14 -7.37752 112.78360 11 ft 24 kts 279°
2026-04-28 11:15 -7.37724 112.78188 11 ft 25 kts 280°
2026-04-28 11:15 -7.37695 112.78005 11 ft 27 kts 279°
2026-04-28 11:15 -7.37665 112.77812 11 ft 28 kts 277°
2026-04-28 11:15 -7.37635 112.77625 11 ft 24 kts 278°
2026-04-28 11:16 -7.37615 112.77499 11 ft 12 kts 279°
2026-04-28 11:16 -7.37610 112.77421 11 ft 10 kts 254°
2026-04-28 11:16 -7.37660 112.77385 11 ft 8 kts 197°
2026-04-28 11:16 -7.37664 112.77384 11 ft 0 kts 197°
2026-04-28 11:17 -7.37671 112.77382 11 ft 2 kts 196°
2026-04-28 11:17 -7.37699 112.77375 11 ft 5 kts 190°
2026-04-28 11:17 -7.37753 112.77371 11 ft 8 kts 159°
2026-04-28 11:18 -7.37779 112.77416 11 ft 0 kts 100°
2026-04-28 11:18 -7.37787 112.77465 11 ft 31 kts 98°
2026-04-28 11:18 -7.37866 112.77951 11 ft 106 kts 99°
2026-04-28 11:19 -7.38018 112.78899 13 ft 166 kts 97°
2026-04-28 11:19 -7.38245 112.80132 404 ft 187 kts 98°
2026-04-28 11:19 -7.38453 112.81413 1196 ft 193 kts 97°
2026-04-28 11:19 -7.38656 112.82760 1896 ft 199 kts 97°
2026-04-28 11:20 -7.38873 112.84174 2394 ft 211 kts 98°
2026-04-28 11:20 -7.39111 112.85669 2838 ft 226 kts 98°
2026-04-28 11:20 -7.39377 112.87319 3259 ft 246 kts 98°
2026-04-28 11:20 -7.39656 112.89033 3993 ft 252 kts 98°
2026-04-28 11:21 -7.39886 112.90812 4567 ft 264 kts 91°
2026-04-28 11:21 -7.39667 112.92645 5299 ft 268 kts 70°
2026-04-28 11:21 -7.38758 112.94271 6050 ft 272 kts 53°
2026-04-28 11:21 -7.37592 112.95777 6821 ft 274 kts 52°
2026-04-28 11:22 -7.36397 112.97301 7536 ft 278 kts 53°
2026-04-28 11:22 -7.35224 112.98834 8270 ft 281 kts 53°
2026-04-28 11:22 -7.34040 113.00411 8963 ft 284 kts 53°
2026-04-28 11:22 -7.32855 113.02004 9647 ft 288 kts 54°
2026-04-28 11:23 -7.31649 113.03632 10331 ft 292 kts 54°
2026-04-28 11:23 -7.30410 113.05303 10783 ft 305 kts 54°
2026-04-28 11:23 -7.29122 113.07038 11154 ft 319 kts 54°
2026-04-28 11:23 -7.27734 113.08870 11509 ft 334 kts 51°
2026-04-28 11:24 -7.26090 113.10526 12002 ft 343 kts 38°
2026-04-28 11:24 -7.23903 113.11608 12631 ft 351 kts 18°
2026-04-28 11:24 -7.21551 113.12189 13329 ft 353 kts 14°
2026-04-28 11:24 -7.19127 113.12695 13962 ft 357 kts 13°
2026-04-28 11:25 -7.16690 113.13201 14672 ft 359 kts 13°
2026-04-28 11:25 -7.14226 113.13734 15306 ft 363 kts 14°
2026-04-28 11:25 -7.11747 113.14292 16012 ft 365 kts 14°
2026-04-28 11:25 -7.09261 113.14866 16658 ft 367 kts 14°
2026-04-28 11:26 -7.06751 113.15453 17278 ft 370 kts 14°
2026-04-28 11:26 -7.04234 113.16045 17894 ft 373 kts 14°
2026-04-28 11:26 -7.01691 113.16643 18451 ft 376 kts 14°
2026-04-28 11:26 -6.99126 113.17246 18985 ft 380 kts 14°
2026-04-28 11:27 -6.96524 113.17857 19529 ft 383 kts 14°
2026-04-28 11:27 -6.93946 113.18461 20086 ft 385 kts 14°
2026-04-28 11:27 -6.91313 113.19078 20610 ft 388 kts 14°
2026-04-28 11:27 -6.88665 113.19699 20968 ft 394 kts 14°
2026-04-28 11:28 -6.85956 113.20334 21006 ft 393 kts 14°
2026-04-28 11:28 -6.83319 113.20951 21005 ft 390 kts 14°
2026-04-28 11:28 -6.80655 113.21575 21005 ft 391 kts 14°
2026-04-28 11:28 -6.77977 113.22202 21001 ft 392 kts 14°
2026-04-28 11:29 -6.75342 113.22820 20999 ft 391 kts 14°
2026-04-28 11:29 -6.72691 113.23441 21000 ft 392 kts 14°
2026-04-28 11:29 -6.70011 113.24068 21001 ft 391 kts 14°
2026-04-28 11:29 -6.67353 113.24692 21005 ft 392 kts 14°
2026-04-28 11:30 -6.64699 113.25313 21003 ft 392 kts 14°
2026-04-28 11:30 -6.59349 113.26565 21009 ft 391 kts 14°
2026-04-28 11:30 -6.56718 113.27181 21010 ft 391 kts 15°
2026-04-28 11:31 -6.54060 113.27803 21011 ft 392 kts 14°
2026-04-28 11:31 -6.51388 113.28429 21014 ft 391 kts 15°
2026-04-28 11:31 -6.48734 113.29050 21150 ft 398 kts 14°
2026-04-28 11:31 -6.46013 113.29688 21819 ft 396 kts 15°
2026-04-28 11:32 -6.43321 113.30318 22387 ft 397 kts 15°
2026-04-28 11:32 -6.40613 113.30952 22807 ft 401 kts 14°
2026-04-28 11:32 -6.37875 113.31593 23226 ft 406 kts 14°
2026-04-28 11:32 -6.35126 113.32237 23662 ft 409 kts 14°
2026-04-28 11:33 -6.32341 113.32888 24105 ft 412 kts 14°
2026-04-28 11:33 -6.29508 113.33550 24525 ft 416 kts 14°
2026-04-28 11:33 -6.26715 113.34267 24951 ft 418 kts 18°
2026-04-28 11:33 -6.23914 113.35213 25379 ft 421 kts 22°
2026-04-28 11:34 -6.21231 113.36338 25756 ft 424 kts 25°
2026-04-28 11:34 -6.18546 113.37592 26147 ft 427 kts 27°
2026-04-28 11:34 -6.15833 113.38921 26539 ft 430 kts 27°
2026-04-28 11:34 -6.13156 113.40254 26909 ft 433 kts 27°
2026-04-28 11:35 -6.10438 113.41612 27306 ft 436 kts 27°
2026-04-28 11:35 -6.07695 113.42979 27652 ft 439 kts 27°
2026-04-28 11:35 -6.04960 113.44337 28022 ft 442 kts 27°
2026-04-28 11:35 -6.02178 113.45710 28359 ft 446 kts 27°
2026-04-28 11:36 -5.99411 113.47071 28768 ft 447 kts 27°
2026-04-28 11:36 -5.96577 113.48461 29203 ft 448 kts 27°
2026-04-28 11:36 -5.93804 113.49818 29742 ft 446 kts 27°
2026-04-28 11:36 -5.91018 113.51179 30413 ft 441 kts 27°
2026-04-28 11:37 -5.88258 113.52527 30947 ft 439 kts 27°
2026-04-28 11:37 -5.85542 113.53852 31423 ft 438 kts 27°
2026-04-28 11:37 -5.82784 113.55199 31932 ft 436 kts 27°
2026-04-28 11:37 -5.80062 113.56528 32363 ft 435 kts 27°
2026-04-28 11:38 -5.77337 113.57858 32843 ft 433 kts 27°
2026-04-28 11:38 -5.74630 113.59178 33011 ft 437 kts 28°
2026-04-28 11:38 -5.69151 113.61851 33006 ft 432 kts 27°
2026-04-28 11:39 -5.63754 113.64482 33005 ft 433 kts 27°
2026-04-28 11:39 -5.58304 113.67139 33005 ft 433 kts 27°
2026-04-28 11:40 -5.52853 113.69796 33005 ft 434 kts 27°
2026-04-28 11:40 -5.47451 113.72428 33004 ft 434 kts 27°
2026-04-28 11:41 -5.41998 113.75084 33002 ft 434 kts 27°
2026-04-28 11:41 -5.36522 113.77752 32999 ft 435 kts 27°
2026-04-28 11:42 -5.31074 113.80405 32992 ft 437 kts 27°
2026-04-28 11:42 -5.25576 113.83081 32988 ft 436 kts 27°
2026-04-28 11:43 -5.20118 113.85738 32989 ft 436 kts 27°
2026-04-28 11:43 -5.14680 113.88384 32994 ft 436 kts 27°
2026-04-28 11:44 -5.09185 113.91057 33002 ft 437 kts 27°
2026-04-28 11:44 -5.03713 113.93719 33005 ft 438 kts 27°
2026-04-28 11:45 -4.98206 113.96397 33004 ft 439 kts 27°
2026-04-28 11:45 -4.92858 113.99280 33005 ft 437 kts 33°
2026-04-28 11:46 -4.87762 114.02620 33005 ft 435 kts 36°
2026-04-28 11:46 -4.82750 114.06040 33005 ft 435 kts 36°
2026-04-28 11:47 -4.77724 114.09445 33005 ft 436 kts 36°
2026-04-28 11:47 -4.72681 114.12825 33005 ft 436 kts 35°
2026-04-28 11:48 -4.67624 114.16190 33005 ft 436 kts 35°
2026-04-28 11:48 -4.62567 114.19546 33005 ft 436 kts 35°
2026-04-28 11:49 -4.57493 114.22908 33005 ft 436 kts 35°
2026-04-28 11:49 -4.52428 114.26261 33005 ft 435 kts 35°
2026-04-28 11:50 -4.47380 114.29603 33005 ft 435 kts 35°
2026-04-28 11:50 -4.42303 114.32964 33005 ft 435 kts 35°
2026-04-28 11:51 -4.37251 114.36307 33005 ft 436 kts 35°
2026-04-28 11:51 -4.32171 114.39668 33005 ft 435 kts 35°
2026-04-28 11:52 -4.27116 114.43013 33005 ft 436 kts 35°
2026-04-28 11:52 -4.22052 114.46362 33001 ft 436 kts 35°
2026-04-28 11:53 -4.17013 114.49695 32998 ft 435 kts 35°
2026-04-28 11:53 -4.11933 114.53054 32997 ft 436 kts 35°
2026-04-28 11:54 -4.06874 114.56399 32996 ft 436 kts 35°
2026-04-28 11:54 -4.01823 114.59738 32998 ft 435 kts 35°
2026-04-28 11:55 -3.96740 114.63097 32997 ft 436 kts 35°
2026-04-28 11:55 -3.91689 114.66435 33007 ft 436 kts 35°
2026-04-28 11:56 -3.86646 114.69767 33011 ft 434 kts 35°
2026-04-28 11:56 -3.81572 114.73119 33014 ft 434 kts 35°
2026-04-28 11:57 -3.76549 114.76438 33009 ft 434 kts 35°
2026-04-28 11:57 -3.71482 114.79784 33006 ft 434 kts 35°
2026-04-28 11:58 -3.66422 114.83127 33009 ft 435 kts 35°
2026-04-28 11:58 -3.61361 114.86468 33007 ft 434 kts 35°
2026-04-28 11:59 -3.56321 114.89796 33009 ft 433 kts 35°
2026-04-28 11:59 -3.51313 114.93102 33013 ft 433 kts 35°
2026-04-28 12:00 -3.46266 114.96432 33009 ft 432 kts 35°
2026-04-28 12:00 -3.41257 114.99738 33010 ft 432 kts 35°
2026-04-28 12:01 -3.36225 115.03058 33013 ft 433 kts 35°
2026-04-28 12:01 -3.31190 115.06380 33012 ft 433 kts 35°
2026-04-28 12:02 -3.26142 115.09710 33017 ft 433 kts 35°
2026-04-28 12:02 -3.21103 115.13033 33020 ft 433 kts 35°
2026-04-28 12:03 -3.16083 115.16344 33020 ft 433 kts 35°
2026-04-28 12:03 -3.11030 115.19676 33026 ft 433 kts 36°
2026-04-28 12:04 -3.06004 115.22990 33026 ft 433 kts 35°
2026-04-28 12:04 -3.00935 115.26333 33026 ft 433 kts 36°
2026-04-28 12:05 -2.95925 115.29636 33028 ft 433 kts 36°
2026-04-28 12:05 -2.90873 115.32965 33035 ft 433 kts 36°
2026-04-28 12:06 -2.85854 115.36272 33043 ft 433 kts 36°
2026-04-28 12:06 -2.80800 115.39603 33056 ft 434 kts 36°
2026-04-28 12:07 -2.75785 115.42908 33067 ft 431 kts 36°
2026-04-28 12:07 -2.70750 115.46225 33074 ft 432 kts 36°
2026-04-28 12:08 -2.65731 115.49532 33069 ft 432 kts 35°
2026-04-28 12:08 -2.60706 115.52843 33057 ft 433 kts 35°
2026-04-28 12:09 -2.55675 115.56156 33044 ft 433 kts 36°
2026-04-28 12:09 -2.50621 115.59484 33036 ft 433 kts 36°
2026-04-28 12:10 -2.45582 115.62802 33036 ft 433 kts 36°
2026-04-28 12:10 -2.40575 115.66099 33039 ft 432 kts 36°
2026-04-28 12:11 -2.35545 115.69411 33050 ft 432 kts 35°
2026-04-28 12:11 -2.30490 115.72739 32728 ft 432 kts 36°
2026-04-28 12:12 -2.28000 115.74377 32396 ft 424 kts 36°
2026-04-28 12:12 -2.25563 115.76012 31994 ft 418 kts 38°
2026-04-28 12:12 -2.23292 115.77788 31511 ft 414 kts 43°
2026-04-28 12:12 -2.21185 115.79730 30975 ft 412 kts 46°
2026-04-28 12:13 -2.19180 115.81771 30441 ft 410 kts 48°
2026-04-28 12:13 -2.17243 115.83845 29921 ft 408 kts 49°
2026-04-28 12:13 -2.15336 115.85931 29399 ft 406 kts 50°
2026-04-28 12:13 -2.13437 115.88023 28865 ft 404 kts 50°
2026-04-28 12:14 -2.11563 115.90086 28343 ft 402 kts 50°
2026-04-28 12:14 -2.09677 115.92157 27819 ft 400 kts 50°
2026-04-28 12:14 -2.07814 115.94196 27298 ft 399 kts 49°
2026-04-28 12:14 -2.05964 115.96216 26785 ft 397 kts 49°
2026-04-28 12:15 -2.04096 115.98251 26256 ft 395 kts 49°
2026-04-28 12:15 -2.02228 116.00283 25733 ft 393 kts 49°
2026-04-28 12:15 -2.00382 116.02289 25216 ft 391 kts 49°
2026-04-28 12:15 -1.98539 116.04290 24699 ft 389 kts 49°
2026-04-28 12:16 -1.96713 116.06272 24184 ft 387 kts 50°
2026-04-28 12:16 -1.94917 116.08221 23679 ft 385 kts 50°
2026-04-28 12:16 -1.93101 116.10192 23170 ft 383 kts 50°
2026-04-28 12:16 -1.91293 116.12155 22667 ft 380 kts 50°
2026-04-28 12:17 -1.89527 116.14072 22175 ft 378 kts 50°
2026-04-28 12:17 -1.87735 116.16018 21674 ft 377 kts 50°
2026-04-28 12:17 -1.85971 116.17935 21170 ft 375 kts 50°
2026-04-28 12:17 -1.84209 116.19852 20669 ft 373 kts 49°
2026-04-28 12:18 -1.82447 116.21767 20161 ft 372 kts 49°
2026-04-28 12:18 -1.80718 116.23649 19668 ft 370 kts 49°
2026-04-28 12:18 -1.78984 116.25534 19176 ft 368 kts 49°
2026-04-28 12:18 -1.77253 116.27416 18673 ft 366 kts 49°
2026-04-28 12:19 -1.75530 116.29289 18180 ft 364 kts 49°
2026-04-28 12:19 -1.73830 116.31138 17684 ft 362 kts 49°
2026-04-28 12:19 -1.72122 116.32995 17200 ft 360 kts 49°
2026-04-28 12:19 -1.70460 116.34801 17002 ft 348 kts 49°
2026-04-28 12:20 -1.68850 116.36556 16994 ft 332 kts 49°
2026-04-28 12:20 -1.67305 116.38249 17000 ft 326 kts 49°
2026-04-28 12:20 -1.65783 116.39922 17002 ft 332 kts 49°
2026-04-28 12:20 -1.64223 116.41637 16998 ft 330 kts 49°
2026-04-28 12:21 -1.62677 116.43333 16895 ft 329 kts 49°
2026-04-28 12:21 -1.61127 116.45032 16431 ft 329 kts 49°
2026-04-28 12:21 -1.59594 116.46710 15991 ft 329 kts 49°
2026-04-28 12:21 -1.58054 116.48396 15542 ft 328 kts 49°
2026-04-28 12:22 -1.56521 116.50075 15098 ft 327 kts 49°
2026-04-28 12:22 -1.54979 116.51764 14643 ft 327 kts 49°
2026-04-28 12:22 -1.53479 116.53458 14202 ft 325 kts 52°
2026-04-28 12:22 -1.52198 116.55302 13990 ft 315 kts 61°
2026-04-28 12:23 -1.51243 116.57230 13633 ft 313 kts 67°
2026-04-28 12:23 -1.50439 116.59246 13188 ft 313 kts 70°
2026-04-28 12:23 -1.49698 116.61282 12785 ft 311 kts 71°
2026-04-28 12:23 -1.48966 116.63316 12374 ft 310 kts 70°
2026-04-28 12:24 -1.48233 116.65321 11964 ft 309 kts 70°
2026-04-28 12:24 -1.47483 116.67339 11587 ft 306 kts 70°
2026-04-28 12:24 -1.46744 116.69305 11209 ft 305 kts 70°
2026-04-28 12:24 -1.45995 116.71285 10814 ft 303 kts 70°
2026-04-28 12:25 -1.45254 116.73241 10499 ft 300 kts 69°
2026-04-28 12:25 -1.44529 116.75153 10376 ft 289 kts 69°
2026-04-28 12:25 -1.43827 116.77007 10249 ft 280 kts 69°
2026-04-28 12:25 -1.43142 116.78816 9912 ft 279 kts 69°
2026-04-28 12:26 -1.42461 116.80621 9561 ft 278 kts 69°
2026-04-28 12:26 -1.41795 116.82421 9240 ft 276 kts 70°
2026-04-28 12:26 -1.41136 116.84221 8986 ft 273 kts 70°
2026-04-28 12:26 -1.40486 116.86004 8994 ft 274 kts 70°
2026-04-28 12:27 -1.39834 116.87787 8981 ft 274 kts 70°
2026-04-28 12:27 -1.39189 116.89552 8821 ft 269 kts 70°
2026-04-28 12:27 -1.38540 116.91320 8513 ft 268 kts 70°
2026-04-28 12:27 -1.37897 116.93074 8180 ft 268 kts 70°
2026-04-28 12:28 -1.37261 116.94809 7844 ft 268 kts 70°
2026-04-28 12:28 -1.36617 116.96568 7467 ft 269 kts 70°
2026-04-28 12:28 -1.35975 116.98325 7125 ft 270 kts 69°
2026-04-28 12:28 -1.35338 117.00069 6784 ft 269 kts 69°
2026-04-28 12:29 -1.34060 117.03567 6131 ft 268 kts 69°
2026-04-28 12:29 -1.33417 117.05331 5783 ft 268 kts 69°
2026-04-28 12:29 -1.32777 117.07082 5453 ft 267 kts 69°
2026-04-28 12:30 -1.32129 117.08798 5104 ft 267 kts 66°
2026-04-28 12:30 -1.31183 117.10385 4768 ft 265 kts 46°
2026-04-28 12:30 -1.29660 117.11369 4457 ft 263 kts 18°
2026-04-28 12:30 -1.27852 117.11540 4162 ft 262 kts 354°
2026-04-28 12:31 -1.26100 117.11104 4010 ft 256 kts 341°
2026-04-28 12:31 -1.24465 117.10438 3804 ft 251 kts 338°
2026-04-28 12:31 -1.22854 117.09722 3541 ft 249 kts 338°
2026-04-28 12:31 -1.21348 117.08903 3242 ft 246 kts 326°
2026-04-28 12:32 -1.20228 117.07645 3033 ft 239 kts 296°
2026-04-28 12:32 -1.19963 117.06078 2855 ft 227 kts 266°
2026-04-28 12:32 -1.20309 117.04588 2672 ft 216 kts 251°
2026-04-28 12:32 -1.20913 117.03236 2469 ft 206 kts 244°
2026-04-28 12:33 -1.21514 117.01961 2275 ft 197 kts 247°
2026-04-28 12:33 -1.22027 117.00734 2136 ft 191 kts 249°
2026-04-28 12:33 -1.22530 116.99531 1970 ft 181 kts 248°
2026-04-28 12:33 -1.23012 116.98409 1660 ft 168 kts 247°
2026-04-28 12:34 -1.23459 116.97365 1441 ft 159 kts 247°
2026-04-28 12:34 -1.23883 116.96364 1249 ft 154 kts 247°
2026-04-28 12:34 -1.24308 116.95371 1048 ft 155 kts 247°
2026-04-28 12:34 -1.24723 116.94396 854 ft 152 kts 247°
2026-04-28 12:35 -1.25147 116.93419 638 ft 152 kts 246°
2026-04-28 12:35 -1.25558 116.92457 430 ft 149 kts 248°
2026-04-28 12:35 -1.25962 116.91507 250 ft 148 kts 246°
2026-04-28 12:35 -1.26361 116.90578 82 ft 145 kts 247°
2026-04-28 12:36 -1.26742 116.89665 28 ft 143 kts 247°
2026-04-28 12:36 -1.27106 116.88809 33 ft 105 kts 247°
2026-04-28 12:36 -1.27229 116.88406 30 ft 25 kts 301°
2026-04-28 12:36 -1.27107 116.88391 32 ft 15 kts 48°
2026-04-28 12:37 -1.27065 116.88476 34 ft 12 kts 66°